Location: Unspecified
(49.9820°N, 20.4363°E)
Time: 06:31:35
(UTC+02:00)

ISS - Pass Details

Date: 17 March 2018
Orbit: 402 x 407 km, 51.6° (Epoch: 25 June)

Event Time Altitude Azimuth Distance (km) Brightness Sun altitude
Exits shadow 03:02:42 18° 102° (ESE) 1,086 -1.2 -26.2°
Drops below altitude 10° 03:03:41 10° 103° (ESE) 1,479 -0.5 -26.0°
Enters shadow 04:03:02 -62° 298° (WNW) 11,729 3.5 -17.4°
